When you browse on this site, cookies collect data to enhance your experience and personalize the content and advertising you see.
Visit our Privacy Policy to learn more. By continuing to use the site, you agree to this use of cookies and data.
  • In Lithuania
  • List of Countries
  • For 7 days
  • Water Temperature
  • Satellite Maps
  • Weather Map
  • Weather Widgets
  • user-avatar
    Login

    Hourly Weather Oyem

    Today, 22 January, Tuesday

    Time Temperature Precipitation Wind Pressure Humidity
    00:00 +23°C° 0 mm 1 mps 704 mmHg 91%
    01:00 +21°C° 0 mm 0 mps 703 mmHg 93%
    02:00 +23°C° 0.1 mm 1 mps 703 mmHg 94%
    03:00 +23°C° 0.1 mm 1 mps 703 mmHg 95%
    04:00 +22°C° 0.1 mm 1 mps 703 mmHg 95%
    05:00 +22°C° 0.1 mm 1 mps 703 mmHg 95%
    06:00 +20°C° 0.1 mm 0 mps 704 mmHg 94%
    07:00 +20°C° 0.1 mm 0 mps 704 mmHg 94%
    08:00 +24°C° 0.1 mm 1 mps 705 mmHg 84%
    09:00 +27°C° 0.1 mm 1 mps 705 mmHg 74%
    10:00 +29°C° 0.1 mm 1 mps 706 mmHg 64%
    11:00 +31°C° 0 mm 1 mps 706 mmHg 57%
    12:00 +33°C° 0 mm 1 mps 705 mmHg 50%
    13:00 +34°C° 0 mm 1 mps 705 mmHg 42%
    14:00 +34°C° 0 mm 1 mps 704 mmHg 45%
    15:00 +33°C° 0 mm 1 mps 703 mmHg 47%
    16:00 +32°C° 0 mm 1 mps 702 mmHg 49%
    17:00 +30°C° 0.5 mm 1 mps 702 mmHg 59%
    18:00 +28°C° 0.5 mm 1 mps 702 mmHg 69%
    19:00 +26°C° 0.5 mm 2 mps 702 mmHg 79%
    20:00 +25°C° 0.1 mm 1 mps 703 mmHg 82%
    21:00 +25°C° 0.1 mm 1 mps 704 mmHg 84%
    22:00 +24°C° 0.1 mm 1 mps 704 mmHg 87%
    23:00 +24°C° 0.1 mm 1 mps 704 mmHg 89%

    Tomorrow, 23 January, Wednesday

    Time Temperature Precipitation Wind Pressure Humidity
    00:00 +23°C° 0.1 mm 1 mps 704 mmHg 92%
    01:00 +23°C° 0.1 mm 1 mps 704 mmHg 94%
    02:00 +23°C° 0 mm 1 mps 703 mmHg 95%
    03:00 +22°C° 0 mm 1 mps 703 mmHg 96%
    04:00 +22°C° 0 mm 1 mps 703 mmHg 97%
    05:00 +22°C° 0 mm 1 mps 703 mmHg 96%
    06:00 +23°C° 0 mm 1 mps 703 mmHg 95%
    07:00 +23°C° 0 mm 1 mps 704 mmHg 94%
    08:00 +23°C° 0 mm 1 mps 704 mmHg 90%
    09:00 +24°C° 0 mm 1 mps 705 mmHg 86%
    10:00 +23°C° 0 mm 0 mps 706 mmHg 83%
    11:00 +27°C° 0 mm 1 mps 705 mmHg 74%
    12:00 +29°C° 0 mm 1 mps 705 mmHg 65%
    13:00 +31°C° 0 mm 1 mps 704 mmHg 56%
    14:00 +31°C° 0 mm 1 mps 704 mmHg 54%
    15:00 +32°C° 0 mm 1 mps 703 mmHg 52%
    16:00 +32°C° 0 mm 1 mps 702 mmHg 49%
    17:00 +31°C° 0 mm 1 mps 702 mmHg 56%
    18:00 +29°C° 0 mm 1 mps 702 mmHg 63%
    19:00 +27°C° 0 mm 1 mps 702 mmHg 69%
    20:00 +26°C° 0 mm 1 mps 703 mmHg 73%
    21:00 +26°C° 0 mm 1 mps 703 mmHg 77%
    22:00 +25°C° 0 mm 1 mps 704 mmHg 80%
    23:00 +25°C° 0 mm 1 mps 703 mmHg 83%

    Day after tomorrow, 24 January, Thursday

    Time Temperature Precipitation Wind Pressure Humidity
    00:00 +24°C° 0 mm 1 mps 703 mmHg 86%
    01:00 +24°C° 0 mm 1 mps 703 mmHg 89%
    02:00 +23°C° 0 mm 1 mps 702 mmHg 90%
    03:00 +23°C° 0 mm 1 mps 702 mmHg 92%
    04:00 +21°C° 0 mm 0 mps 702 mmHg 94%
    05:00 +21°C° 0 mm 0 mps 702 mmHg 94%
    06:00 +21°C° 0 mm 0 mps 702 mmHg 94%
    07:00 +21°C° 0 mm 0 mps 703 mmHg 94%
    08:00 +25°C° 0 mm 1 mps 703 mmHg 84%
    09:00 +27°C° 0 mm 1 mps 704 mmHg 75%
    10:00 +29°C° 0 mm 1 mps 705 mmHg 65%
    11:00 +30°C° 0.4 mm 1 mps 704 mmHg 62%
    12:00 +31°C° 0.4 mm 1 mps 704 mmHg 60%
    13:00 +30°C° 0.4 mm 0 mps 703 mmHg 58%
    14:00 +30°C° 0.6 mm 0 mps 702 mmHg 58%
    15:00 +32°C° 0.6 mm 1 mps 702 mmHg 58%
    16:00 +32°C° 0.6 mm 1 mps 701 mmHg 58%
    17:00 +29°C° 1 mm 1 mps 701 mmHg 69%
    18:00 +27°C° 1 mm 1 mps 701 mmHg 79%
    19:00 +25°C° 1 mm 1 mps 702 mmHg 90%
    20:00 +25°C° 0.1 mm 1 mps 702 mmHg 91%
    21:00 +24°C° 0.1 mm 1 mps 703 mmHg 93%
    22:00 +24°C° 0.1 mm 1 mps 703 mmHg 94%
    23:00 +24°C° 0 mm 1 mps 703 mmHg 95%

    25 January, Friday

    Time Temperature Precipitation Wind Pressure Humidity
    00:00 +24°C° 0 mm 1 mps 703 mmHg 96%
    01:00 +23°C° 0 mm 1 mps 702 mmHg 97%
    02:00 +23°C° 0 mm 1 mps 702 mmHg 97%
    03:00 +23°C° 0 mm 1 mps 702 mmHg 98%
    04:00 +22°C° 0 mm 1 mps 702 mmHg 98%
    05:00 +22°C° 0 mm 1 mps 702 mmHg 98%
    06:00 +22°C° 0 mm 1 mps 703 mmHg 98%
    07:00 +20°C° 0 mm 0 mps 703 mmHg 97%
    08:00 +23°C° 0 mm 1 mps 704 mmHg 93%
    09:00 +24°C° 0 mm 1 mps 704 mmHg 89%
    10:00 +25°C° 0 mm 1 mps 704 mmHg 85%
    11:00 +27°C° 0 mm 1 mps 704 mmHg 75%
    12:00 +29°C° 0 mm 1 mps 703 mmHg 66%
    13:00 +31°C° 0 mm 1 mps 703 mmHg 56%
    14:00 +31°C° 0.1 mm 1 mps 702 mmHg 55%
    15:00 +31°C° 0.1 mm 1 mps 702 mmHg 55%
    16:00 +32°C° 0.1 mm 1 mps 701 mmHg 54%
    17:00 +29°C° 0.9 mm 1 mps 701 mmHg 66%
    18:00 +27°C° 0.9 mm 1 mps 701 mmHg 78%
    19:00 +24°C° 0.9 mm 1 mps 702 mmHg 90%
    20:00 +24°C° 0 mm 1 mps 702 mmHg 91%
    21:00 +24°C° 0 mm 1 mps 703 mmHg 93%
    22:00 +23°C° 0 mm 1 mps 703 mmHg 94%
    23:00 +23°C° 0.8 mm 1 mps 703 mmHg 94%

    26 January, Saturday

    Time Temperature Precipitation Wind Pressure Humidity
    00:00 +23°C° 0.8 mm 1 mps 702 mmHg 94%
    01:00 +23°C° 0.8 mm 2 mps 702 mmHg 94%
    02:00 +23°C° 0 mm 1 mps 702 mmHg 96%
    03:00 +22°C° 0 mm 1 mps 702 mmHg 97%
    04:00 +22°C° 0 mm 1 mps 702 mmHg 98%
    05:00 +22°C° 0 mm 1 mps 703 mmHg 98%
    06:00 +23°C° 0 mm 1 mps 703 mmHg 97%
    07:00 +21°C° 0 mm 0 mps 704 mmHg 96%
    08:00 +23°C° 0 mm 1 mps 704 mmHg 92%
    09:00 +24°C° 0 mm 1 mps 704 mmHg 88%
    10:00 +25°C° 0 mm 1 mps 705 mmHg 85%
    11:00 +27°C° 0 mm 1 mps 705 mmHg 74%
    12:00 +30°C° 0 mm 1 mps 704 mmHg 62%
    13:00 +33°C° 0 mm 1 mps 704 mmHg 51%
    14:00 +32°C° 0.1 mm 1 mps 703 mmHg 51%
    15:00 +32°C° 0.1 mm 1 mps 703 mmHg 51%
    16:00 +32°C° 0.1 mm 1 mps 702 mmHg 51%
    17:00 +30°C° 0.9 mm 1 mps 702 mmHg 64%
    18:00 +27°C° 0.9 mm 1 mps 703 mmHg 77%
    19:00 +24°C° 0.9 mm 1 mps 703 mmHg 90%
    20:00 +24°C° 0.2 mm 1 mps 703 mmHg 91%
    21:00 +24°C° 0.2 mm 1 mps 704 mmHg 92%
    22:00 +23°C° 0.2 mm 1 mps 704 mmHg 93%
    23:00 +23°C° 0 mm 1 mps 704 mmHg 94%

    27 January, Sunday

    Time Temperature Precipitation Wind Pressure Humidity
    00:00 +23°C° 0 mm 1 mps 703 mmHg 95%
    01:00 +22°C° 0 mm 1 mps 703 mmHg 96%
    02:00 +22°C° 0 mm 1 mps 703 mmHg 96%
    03:00 +22°C° 0 mm 1 mps 703 mmHg 97%
    04:00 +22°C° 0 mm 1 mps 702 mmHg 98%
    05:00 +22°C° 0 mm 1 mps 703 mmHg 98%
    06:00 +20°C° 0 mm 0 mps 703 mmHg 98%
    07:00 +20°C° 0 mm 0 mps 704 mmHg 97%
    08:00 +21°C° 0 mm 0 mps 704 mmHg 93%
    09:00 +22°C° 0 mm 0 mps 704 mmHg 88%
    10:00 +23°C° 0 mm 0 mps 705 mmHg 83%
    11:00 +27°C° 0 mm 1 mps 704 mmHg 73%
    12:00 +29°C° 0 mm 1 mps 704 mmHg 63%
    13:00 +32°C° 0 mm 1 mps 703 mmHg 53%
    14:00 +32°C° 0 mm 1 mps 703 mmHg 52%
    15:00 +32°C° 0 mm 1 mps 702 mmHg 51%
    16:00 +32°C° 0 mm 1 mps 701 mmHg 51%
    17:00 +30°C° 0.1 mm 1 mps 702 mmHg 58%
    18:00 +28°C° 0.1 mm 1 mps 702 mmHg 66%
    19:00 +27°C° 0.1 mm 1 mps 702 mmHg 73%
    20:00 +26°C° 0.7 mm 1 mps 703 mmHg 79%
    21:00 +25°C° 0.7 mm 1 mps 703 mmHg 85%
    22:00 +24°C° 0.7 mm 1 mps 704 mmHg 91%
    23:00 +23°C° 0 mm 1 mps 703 mmHg 92%
    Show more